Time,TemperatureF,DewpointF,PressureIn,WindDirection,WindDirectionDegrees,WindSpeedMPH,WindSpeedGustMPH,Humidity,HourlyPrecipIn,Conditions,Clouds,dailyrainin,SoftwareType,DateUTC
2013-02-18 00:02:00,-999.0,-99.9,-100.00,ENE,74,8.0,9.0,-999,-99.99,,,-99.99,,2013-02-18 08:02:00,
2013-02-18 00:11:00,40.0,-99.9,-100.00,ENE,73,9.0,10.0,-999,-99.99,,,-99.99,,2013-02-18 08:11:00,
2013-02-18 00:22:00,-999.0,-99.9,-100.00,ENE,67,7.0,9.0,-999,-99.99,,,-99.99,,2013-02-18 08:22:00,
2013-02-18 00:33:00,-999.0,-99.9,-100.00,ENE,73,7.0,9.0,-999,-99.99,,,-99.99,,2013-02-18 08:33:00,
2013-02-18 00:42:00,40.0,-99.9,-100.00,ENE,73,7.0,9.0,-999,-99.99,,,-99.99,,2013-02-18 08:42:00,
2013-02-18 00:52:00,40.0,-99.9,-100.00,ENE,76,7.0,8.0,-999,-99.99,,,-99.99,,2013-02-18 08:52:00,
2013-02-18 01:03:00,40.0,-99.9,-100.00,ENE,68,9.0,10.0,-999,-99.99,,,-99.99,,2013-02-18 09:03:00,
2013-02-18 01:11:00,40.0,-99.9,-100.00,ENE,67,8.0,10.0,-999,-99.99,,,-99.99,,2013-02-18 09:11:00,
2013-02-18 01:22:00,-999.0,-99.9,-100.00,ENE,63,9.0,11.0,-999,-99.99,,,-99.99,,2013-02-18 09:22:00,
2013-02-18 01:32:00,-999.0,-99.9,-100.00,ENE,72,9.0,11.0,-999,-99.99,,,-99.99,,2013-02-18 09:32:00,
2013-02-18 01:42:00,40.0,-99.9,-100.00,ENE,66,8.0,10.0,-999,-99.99,,,-99.99,,2013-02-18 09:42:00,
2013-02-18 01:52:00,40.0,-99.9,-100.00,ENE,72,8.0,10.0,-999,-99.99,,,-99.99,,2013-02-18 09:52:00,
2013-02-18 02:02:00,-999.0,-99.9,-100.00,ENE,67,8.0,11.0,-999,-99.99,,,-99.99,,2013-02-18 10:02:00,
2013-02-18 02:12:00,40.0,-99.9,-100.00,ENE,65,8.0,11.0,-999,-99.99,,,-99.99,,2013-02-18 10:12:00,
2013-02-18 02:22:00,-999.0,-99.9,-100.00,ENE,65,9.0,11.0,-999,-99.99,,,-99.99,,2013-02-18 10:22:00,
2013-02-18 02:32:00,-999.0,-99.9,-100.00,ENE,67,9.0,12.0,-999,-99.99,,,-99.99,,2013-02-18 10:32:00,
2013-02-18 02:43:00,-999.0,-99.9,-100.00,ENE,73,10.0,11.0,-999,-99.99,,,-99.99,,2013-02-18 10:43:00,
2013-02-18 02:54:00,40.0,-99.9,-100.00,ENE,73,9.0,11.0,-999,-99.99,,,-99.99,,2013-02-18 10:54:00,
2013-02-18 03:02:00,-999.0,-99.9,-100.00,ENE,74,10.0,12.0,-999,-99.99,,,-99.99,,2013-02-18 11:02:00,
2013-02-18 03:12:00,39.0,-99.9,-100.00,ENE,76,10.0,12.0,-999,-99.99,,,-99.99,,2013-02-18 11:12:00,
2013-02-18 03:22:00,-999.0,-99.9,-100.00,ENE,77,10.0,11.0,-999,-99.99,,,-99.99,,2013-02-18 11:22:00,
2013-02-18 03:33:00,-999.0,-99.9,-100.00,East,80,8.0,10.0,-999,-99.99,,,-99.99,,2013-02-18 11:33:00,
2013-02-18 03:43:00,-999.0,-99.9,-100.00,ENE,72,8.0,9.0,-999,-99.99,,,-99.99,,2013-02-18 11:43:00,
2013-02-18 03:54:00,40.0,-99.9,-100.00,ENE,73,10.0,12.0,-999,-99.99,,,-99.99,,2013-02-18 11:54:00,
2013-02-18 04:02:00,-999.0,-99.9,-100.00,East,84,8.0,9.0,-999,-99.99,,,-99.99,,2013-02-18 12:02:00,
2013-02-18 04:12:00,40.0,-99.9,-100.00,East,83,7.0,9.0,-999,-99.99,,,-99.99,,2013-02-18 12:12:00,
2013-02-18 04:32:00,-999.0,-99.9,-100.00,ENE,78,9.0,11.0,-999,-99.99,,,-99.99,,2013-02-18 12:32:00,
2013-02-18 04:42:00,39.0,-99.9,-100.00,ENE,78,9.0,10.0,-999,-99.99,,,-99.99,,2013-02-18 12:42:00,
2013-02-18 04:54:00,39.0,-99.9,-100.00,ENE,78,8.0,10.0,-999,-99.99,,,-99.99,,2013-02-18 12:54:00,
2013-02-18 05:03:00,-999.0,-99.9,-100.00,ENE,77,7.0,8.0,-999,-99.99,,,-99.99,,2013-02-18 13:03:00,
2013-02-18 05:13:00,39.0,-99.9,-100.00,East,79,7.0,8.0,-999,-99.99,,,-99.99,,2013-02-18 13:13:00,
2013-02-18 05:23:00,-999.0,-99.9,-100.00,East,81,7.0,8.0,-999,-99.99,,,-99.99,,2013-02-18 13:23:00,
2013-02-18 05:33:00,-999.0,-99.9,-100.00,ENE,78,7.0,8.0,-999,-99.99,,,-99.99,,2013-02-18 13:33:00,
2013-02-18 05:43:00,39.0,-99.9,-100.00,ENE,76,7.0,9.0,-999,-99.99,,,-99.99,,2013-02-18 13:43:00,
2013-02-18 05:53:00,39.0,-99.9,-100.00,ENE,75,6.0,7.0,-999,-99.99,,,-99.99,,2013-02-18 13:53:00,
2013-02-18 06:02:00,-999.0,-99.9,-100.00,ENE,73,7.0,7.0,-999,-99.99,,,-99.99,,2013-02-18 14:02:00,
2013-02-18 06:12:00,-999.0,-99.9,-100.00,ENE,78,7.0,7.0,-999,-99.99,,,-99.99,,2013-02-18 14:12:00,
2013-02-18 06:22:00,39.0,-99.9,-100.00,ENE,77,6.0,8.0,-999,-99.99,,,-99.99,,2013-02-18 14:22:00,
2013-02-18 06:34:00,-999.0,-99.9,-100.00,East,79,5.0,7.0,-999,-99.99,,,-99.99,,2013-02-18 14:34:00,
2013-02-18 06:42:00,-999.0,-99.9,-100.00,East,90,5.0,6.0,-999,-99.99,,,-99.99,,2013-02-18 14:42:00,
2013-02-18 06:54:00,39.0,-99.9,-100.00,ENE,71,7.0,8.0,-999,-99.99,,,-99.99,,2013-02-18 14:54:00,
2013-02-18 07:02:00,-999.0,-99.9,-100.00,ESE,107,3.0,4.0,-999,-99.99,,,-99.99,,2013-02-18 15:02:00,
2013-02-18 07:12:00,40.0,-99.9,-100.00,ESE,108,4.0,5.0,-999,-99.99,,,-99.99,,2013-02-18 15:12:00,
2013-02-18 07:22:00,-999.0,-99.9,-100.00,East,86,4.0,5.0,-999,-99.99,,,-99.99,,2013-02-18 15:22:00,
2013-02-18 07:32:00,-999.0,-99.9,-100.00,East,91,3.0,4.0,-999,-99.99,,,-99.99,,2013-02-18 15:32:00,
2013-02-18 07:42:00,-999.0,-99.9,-100.00,ENE,70,3.0,4.0,-999,-99.99,,,-99.99,,2013-02-18 15:42:00,
2013-02-18 07:53:00,39.0,-99.9,-100.00,East,90,4.0,5.0,-999,-99.99,,,-99.99,,2013-02-18 15:53:00,
2013-02-18 08:03:00,-999.0,-99.9,-100.00,ENE,78,4.0,5.0,-999,-99.99,,,-99.99,,2013-02-18 16:03:00,
2013-02-18 08:12:00,39.0,-99.9,-100.00,East,81,4.0,5.0,-999,-99.99,,,-99.99,,2013-02-18 16:12:00,
2013-02-18 08:23:00,-999.0,-99.9,-100.00,ENE,69,4.0,5.0,-999,-99.99,,,-99.99,,2013-02-18 16:23:00,
2013-02-18 08:33:00,-999.0,-99.9,-100.00,East,82,4.0,5.0,-999,-99.99,,,-99.99,,2013-02-18 16:33:00,
2013-02-18 08:43:00,-999.0,-99.9,-100.00,East,93,5.0,6.0,-999,-99.99,,,-99.99,,2013-02-18 16:43:00,
2013-02-18 08:54:00,39.0,-99.9,-100.00,East,95,5.0,6.0,-999,-99.99,,,-99.99,,2013-02-18 16:54:00,
2013-02-18 09:04:00,-999.0,-99.9,-100.00,SE,125,5.0,6.0,-999,-99.99,,,-99.99,,2013-02-18 17:04:00,
2013-02-18 09:13:00,39.0,-99.9,-100.00,SE,129,5.0,7.0,-999,-99.99,,,-99.99,,2013-02-18 17:13:00,
2013-02-18 09:23:00,-999.0,-99.9,-100.00,ESE,119,5.0,7.0,-999,-99.99,,,-99.99,,2013-02-18 17:23:00,
2013-02-18 09:33:00,-999.0,-99.9,-100.00,ESE,110,7.0,8.0,-999,-99.99,,,-99.99,,2013-02-18 17:33:00,
2013-02-18 09:43:00,39.0,-99.9,-100.00,ESE,105,6.0,8.0,-999,-99.99,,,-99.99,,2013-02-18 17:43:00,
2013-02-18 09:53:00,39.0,-99.9,-100.00,ESE,114,4.0,8.0,-999,-99.99,,,-99.99,,2013-02-18 17:53:00,
2013-02-18 10:03:00,-999.0,-99.9,-100.00,ENE,63,3.0,6.0,-999,-99.99,,,-99.99,,2013-02-18 18:03:00,
2013-02-18 10:13:00,39.0,-99.9,-100.00,East,89,3.0,4.0,-999,-99.99,,,-99.99,,2013-02-18 18:13:00,
2013-02-18 10:23:00,-999.0,-99.9,-100.00,East,101,4.0,4.0,-999,-99.99,,,-99.99,,2013-02-18 18:23:00,
2013-02-18 10:33:00,-999.0,-99.9,-100.00,SE,142,3.0,5.0,-999,-99.99,,,-99.99,,2013-02-18 18:33:00,
2013-02-18 10:43:00,40.0,-99.9,-100.00,SSE,166,5.0,6.0,-999,-99.99,,,-99.99,,2013-02-18 18:43:00,
2013-02-18 10:53:00,39.0,-99.9,-100.00,SSE,161,7.0,8.0,-999,-99.99,,,-99.99,,2013-02-18 18:53:00,
2013-02-18 11:04:00,-999.0,-99.9,-100.00,SSE,157,5.0,6.0,-999,-99.99,,,-99.99,,2013-02-18 19:04:00,
2013-02-18 11:13:00,40.0,-99.9,-100.00,SSE,160,6.0,8.0,-999,-99.99,,,-99.99,,2013-02-18 19:13:00,
2013-02-18 11:23:00,-999.0,-99.9,-100.00,SSE,148,6.0,8.0,-999,-99.99,,,-99.99,,2013-02-18 19:23:00,
2013-02-18 11:34:00,-999.0,-99.9,-100.00,SE,133,5.0,8.0,-999,-99.99,,,-99.99,,2013-02-18 19:34:00,
2013-02-18 11:43:00,-999.0,-99.9,-100.00,SE,139,6.0,9.0,-999,-99.99,,,-99.99,,2013-02-18 19:43:00,
2013-02-18 11:53:00,40.0,-99.9,-100.00,SSE,157,7.0,8.0,-999,-99.99,,,-99.99,,2013-02-18 19:53:00,
2013-02-18 12:03:00,-999.0,-99.9,-100.00,SSE,147,8.0,12.0,-999,-99.99,,,-99.99,,2013-02-18 20:03:00,
2013-02-18 12:13:00,41.0,-99.9,-100.00,SE,145,8.0,13.0,-999,-99.99,,,-99.99,,2013-02-18 20:13:00,
2013-02-18 12:24:00,-999.0,-99.9,-100.00,SE,141,8.0,14.0,-999,-99.99,,,-99.99,,2013-02-18 20:24:00,
2013-02-18 12:34:00,-999.0,-99.9,-100.00,SE,135,10.0,13.0,-999,-99.99,,,-99.99,,2013-02-18 20:34:00,
2013-02-18 12:43:00,42.0,-99.9,-100.00,SE,136,9.0,12.0,-999,-99.99,,,-99.99,,2013-02-18 20:43:00,
2013-02-18 12:53:00,41.0,-99.9,-100.00,SE,142,8.0,11.0,-999,-99.99,,,-99.99,,2013-02-18 20:53:00,
2013-02-18 13:03:00,-999.0,-99.9,-100.00,SSE,159,11.0,12.0,-999,-99.99,,,-99.99,,2013-02-18 21:03:00,
2013-02-18 13:12:00,41.0,-99.9,-100.00,SSE,150,9.0,13.0,-999,-99.99,,,-99.99,,2013-02-18 21:12:00,
2013-02-18 13:23:00,-999.0,-99.9,-100.00,SSE,147,7.0,11.0,-999,-99.99,,,-99.99,,2013-02-18 21:23:00,
2013-02-18 13:33:00,-999.0,-99.9,-100.00,SSE,158,11.0,12.0,-999,-99.99,,,-99.99,,2013-02-18 21:33:00,
2013-02-18 13:43:00,42.0,-99.9,-100.00,SSE,156,11.0,13.0,-999,-99.99,,,-99.99,,2013-02-18 21:43:00,
2013-02-18 13:54:00,42.0,-99.9,-100.00,SSE,156,10.0,13.0,-999,-99.99,,,-99.99,,2013-02-18 21:54:00,
2013-02-18 14:03:00,-999.0,-99.9,-100.00,SSE,155,12.0,15.0,-999,-99.99,,,-99.99,,2013-02-18 22:03:00,
2013-02-18 14:13:00,-999.0,-99.9,-100.00,SE,139,8.0,15.0,-999,-99.99,,,-99.99,,2013-02-18 22:13:00,
2013-02-18 14:23:00,43.0,-99.9,-100.00,SE,143,8.0,13.0,-999,-99.99,,,-99.99,,2013-02-18 22:23:00,
2013-02-18 14:44:00,42.0,-99.9,-100.00,SSE,151,13.0,15.0,-999,-99.99,,,-99.99,,2013-02-18 22:44:00,
2013-02-18 14:54:00,43.0,-99.9,-100.00,North,-999,-999.0,-999.0,-999,-99.99,,,-99.99,,2013-02-18 22:54:00,
2013-02-18 15:03:00,-999.0,-99.9,-100.00,SE,143,8.0,13.0,-999,-99.99,,,-99.99,,2013-02-18 23:03:00,
2013-02-18 15:12:00,43.0,-99.9,-100.00,SSE,148,8.0,14.0,-999,-99.99,,,-99.99,,2013-02-18 23:12:00,
2013-02-18 15:23:00,-999.0,-99.9,-100.00,SSE,148,9.0,12.0,-999,-99.99,,,-99.99,,2013-02-18 23:23:00,
2013-02-18 15:34:00,-999.0,-99.9,-100.00,SE,137,9.0,11.0,-999,-99.99,,,-99.99,,2013-02-18 23:34:00,
2013-02-18 15:43:00,-999.0,-99.9,-100.00,SE,141,10.0,13.0,-999,-99.99,,,-99.99,,2013-02-18 23:43:00,
2013-02-18 15:54:00,43.0,-99.9,-100.00,SSE,147,9.0,15.0,-999,-99.99,,,-99.99,,2013-02-18 23:54:00,
2013-02-18 16:03:00,-999.0,-99.9,-100.00,SE,138,9.0,12.0,-999,-99.99,,,-99.99,,2013-02-19 00:03:00,
2013-02-18 16:13:00,43.0,-99.9,-100.00,SE,132,10.0,14.0,-999,-99.99,,,-99.99,,2013-02-19 00:13:00,
2013-02-18 16:23:00,-999.0,-99.9,-100.00,SE,125,10.0,12.0,-999,-99.99,,,-99.99,,2013-02-19 00:23:00,
2013-02-18 16:36:00,-999.0,-99.9,-100.00,SE,126,10.0,13.0,-999,-99.99,,,-99.99,,2013-02-19 00:36:00,
2013-02-18 16:44:00,-999.0,-99.9,-100.00,SE,128,10.0,14.0,-999,-99.99,,,-99.99,,2013-02-19 00:44:00,
2013-02-18 16:55:00,43.0,-99.9,-100.00,SE,141,9.0,13.0,-999,-99.99,,,-99.99,,2013-02-19 00:55:00,
2013-02-18 17:15:00,42.0,-99.9,-100.00,ENE,64,9.0,12.0,-999,-99.99,,,-99.99,,2013-02-19 01:15:00,
2013-02-18 17:25:00,-999.0,-99.9,-100.00,ENE,71,10.0,12.0,-999,-99.99,,,-99.99,,2013-02-19 01:25:00,
2013-02-18 17:35:00,-999.0,-99.9,-100.00,ENE,71,10.0,15.0,-999,-99.99,,,-99.99,,2013-02-19 01:35:00,
2013-02-18 17:46:00,42.0,-99.9,-100.00,ENE,77,10.0,12.0,-999,-99.99,,,-99.99,,2013-02-19 01:46:00,
2013-02-18 17:57:00,44.0,-99.9,-100.00,ENE,70,9.0,11.0,-999,-99.99,,,-99.99,,2013-02-19 01:57:00,
2013-02-18 18:04:00,-999.0,-99.9,-100.00,ENE,69,9.0,11.0,-999,-99.99,,,-99.99,,2013-02-19 02:04:00,
2013-02-18 18:15:00,41.0,-99.9,-100.00,ENE,71,8.0,11.0,-999,-99.99,,,-99.99,,2013-02-19 02:15:00,
2013-02-18 18:23:00,-999.0,-99.9,-100.00,ENE,70,11.0,13.0,-999,-99.99,,,-99.99,,2013-02-19 02:23:00,
2013-02-18 18:36:00,-999.0,-99.9,-100.00,ENE,64,10.0,12.0,-999,-99.99,,,-99.99,,2013-02-19 02:36:00,
2013-02-18 18:44:00,41.0,-99.9,-100.00,ENE,62,9.0,11.0,-999,-99.99,,,-99.99,,2013-02-19 02:44:00,
2013-02-18 18:56:00,42.0,-99.9,-100.00,ENE,66,11.0,12.0,-999,-99.99,,,-99.99,,2013-02-19 02:56:00,
2013-02-18 19:08:00,-999.0,-99.9,-100.00,ENE,61,12.0,16.0,-999,-99.99,,,-99.99,,2013-02-19 03:08:00,
2013-02-18 19:15:00,-999.0,-99.9,-100.00,ENE,61,12.0,14.0,-999,-99.99,,,-99.99,,2013-02-19 03:15:00,
2013-02-18 19:25:00,40.0,-99.9,-100.00,ENE,64,12.0,15.0,-999,-99.99,,,-99.99,,2013-02-19 03:25:00,
2013-02-18 19:36:00,-999.0,-99.9,-100.00,ENE,60,12.0,15.0,-999,-99.99,,,-99.99,,2013-02-19 03:36:00,
2013-02-18 19:46:00,40.0,-99.9,-100.00,ENE,62,13.0,16.0,-999,-99.99,,,-99.99,,2013-02-19 03:46:00,
2013-02-18 19:56:00,41.0,-99.9,-100.00,ENE,63,12.0,15.0,-999,-99.99,,,-99.99,,2013-02-19 03:56:00,
2013-02-18 20:03:00,-999.0,-99.9,-100.00,ENE,66,12.0,15.0,-999,-99.99,,,-99.99,,2013-02-19 04:03:00,
2013-02-18 20:15:00,40.0,-99.9,-100.00,ENE,65,15.0,17.0,-999,-99.99,,,-99.99,,2013-02-19 04:15:00,
2013-02-18 20:24:00,-999.0,-99.9,-100.00,ENE,65,13.0,16.0,-999,-99.99,,,-99.99,,2013-02-19 04:24:00,
2013-02-18 20:34:00,-999.0,-99.9,-100.00,ENE,66,14.0,16.0,-999,-99.99,,,-99.99,,2013-02-19 04:34:00,
2013-02-18 20:45:00,-999.0,-99.9,-100.00,ENE,67,14.0,17.0,-999,-99.99,,,-99.99,,2013-02-19 04:45:00,
2013-02-18 20:56:00,40.0,-99.9,-100.00,ENE,66,12.0,15.0,-999,-99.99,,,-99.99,,2013-02-19 04:56:00,
2013-02-18 21:02:00,-999.0,-99.9,-100.00,ENE,66,14.0,18.0,-999,-99.99,,,-99.99,,2013-02-19 05:02:00,
2013-02-18 21:13:00,40.0,-99.9,-100.00,ENE,65,15.0,18.0,-999,-99.99,,,-99.99,,2013-02-19 05:13:00,
2013-02-18 21:23:00,-999.0,-99.9,-100.00,ENE,68,15.0,18.0,-999,-99.99,,,-99.99,,2013-02-19 05:23:00,
2013-02-18 21:33:00,-999.0,-99.9,-100.00,ENE,66,14.0,18.0,-999,-99.99,,,-99.99,,2013-02-19 05:33:00,
2013-02-18 21:43:00,40.0,-99.9,-100.00,ENE,58,15.0,18.0,-999,-99.99,,,-99.99,,2013-02-19 05:43:00,
2013-02-18 21:53:00,40.0,-99.9,-100.00,ENE,61,14.0,19.0,-999,-99.99,,,-99.99,,2013-02-19 05:53:00,
2013-02-18 22:03:00,-999.0,-99.9,-100.00,ENE,62,15.0,19.0,-999,-99.99,,,-99.99,,2013-02-19 06:03:00,
2013-02-18 22:12:00,40.0,-99.9,-100.00,ENE,61,15.0,20.0,-999,-99.99,,,-99.99,,2013-02-19 06:12:00,
2013-02-18 22:22:00,-999.0,-99.9,-100.00,ENE,66,15.0,19.0,-999,-99.99,,,-99.99,,2013-02-19 06:22:00,
2013-02-18 22:33:00,-999.0,-99.9,-100.00,ENE,60,15.0,18.0,-999,-99.99,,,-99.99,,2013-02-19 06:33:00,
2013-02-18 22:42:00,-999.0,-99.9,-100.00,ENE,58,14.0,19.0,-999,-99.99,,,-99.99,,2013-02-19 06:42:00,
2013-02-18 22:53:00,40.0,-99.9,-100.00,ENE,62,15.0,18.0,-999,-99.99,,,-99.99,,2013-02-19 06:53:00,
2013-02-18 23:02:00,-999.0,-99.9,-100.00,ENE,60,13.0,18.0,-999,-99.99,,,-99.99,,2013-02-19 07:02:00,
2013-02-18 23:12:00,39.0,-99.9,-100.00,ENE,60,16.0,18.0,-999,-99.99,,,-99.99,,2013-02-19 07:12:00,
2013-02-18 23:22:00,-999.0,-99.9,-100.00,ENE,65,15.0,19.0,-999,-99.99,,,-99.99,,2013-02-19 07:22:00,
2013-02-18 23:33:00,-999.0,-99.9,-100.00,ENE,62,14.0,19.0,-999,-99.99,,,-99.99,,2013-02-19 07:33:00,
2013-02-18 23:42:00,40.0,-99.9,-100.00,ENE,67,15.0,19.0,-999,-99.99,,,-99.99,,2013-02-19 07:42:00,
2013-02-18 23:52:00,39.0,-99.9,-100.00,ENE,60,15.0,18.0,-999,-99.99,,,-99.99,,2013-02-19 07:52:00,